Location: Cerbedi�res
(48.2182°N, 1.4849°W)
Time: 02:32:35
(UTC+00:00)

FALCON 9 DEB - Pass Details

Date: 03 March 2021
Orbit: 371 x 390 km, 53.0° (Epoch: 12 April)

Event Time Altitude Azimuth Distance (km) Brightness Sun altitude
Rises 18:27:35 0° 276° (W) 2,293 9.1 -6.5°
Reaches altitude 10° 18:29:45 10° 285° (WNW) 1,438 7.2 -6.9°
Maximum altitude 18:32:45 34° 353° (N) 669 4.1 -7.3°
Drops below altitude 10° 18:35:44 10° 62° (ENE) 1,439 5.2 -7.8°
Enters shadow 18:35:59 - 63° (ENE) 1,531 5.3 -7.9°
